Location: Potawatomi Wildlife Park
(41.2308°N, 86.1050°W)
Time: 02:07:03
(UTC-04:00)

Daily predictions for brighter satellites

Satellite Brightness Start Highest point End
(mag) Time Altitude Azimuth Time Altitude Azimuth Time Altitude Azimuth
NOSS 0 Rocket 4.2 00:07:06 63° WNW 00:07:06 63° WNW 00:13:19 10° NNE
COSMOS 2455 3.7 00:09:00 10° NNW 00:13:48 43° NNE 00:13:48 43° NNE
FALCON 9 R/B 4.3 00:27:23 56° S 00:29:08 59° SSE 01:06:50 10° E
Cosmos 2278 Rocket 3.6 00:30:41 10° NW 00:34:14 32° WNW 00:34:14 32° WNW
CZ-2C R/B 4.3 00:43:04 10° NNE 00:45:37 28° NNE 00:45:37 28° NNE
Cosmos 2219 Rocket 4.5 00:49:03 14° W 00:51:50 19° NW 00:55:50 10° N
SL-16 R/B 3.6 01:07:34 34° N 01:07:34 34° N 01:10:52 10° NNE
Cosmos 1943 Rocket 4.2 01:10:30 10° N 01:13:45 20° NE 01:13:45 20° NE
CENTAUR R/B 3.9 01:25:01 10° NW 01:30:40 41° W 01:30:40 41° W
Mayak 1.9 01:31:08 10° NNE 01:31:27 12° NNE 01:31:27 12° NNE
Cosmos 2369 Rocket 3.7 01:36:36 10° NNW 01:39:48 32° N 01:39:48 32° N
USA 215 4.0 01:48:54 47° NE 01:49:10 47° NNE 01:55:22 10° NW
SL-16 R/B 4.2 02:51:01 24° E 02:52:53 28° ENE 02:58:00 10° N
Cosmos 1943 Rocket 4.0 02:53:18 10° NNW 02:55:14 22° NW 02:55:14 22° NW
Lacrosse 5 4.3 02:55:27 10° NNW 02:59:09 20° NNE 03:02:50 10° ENE
CZ-2D R/B 4.0 03:00:49 10° NE 03:04:15 21° E 03:04:15 21° E
USA 229 DEB 3.7 03:21:03 10° NNW 03:28:16 83° NE 03:28:31 81° E
USA 229 3.7 03:21:10 10° NNW 03:28:22 82° NE 03:28:41 80° E
Cosmos 2098 Rocket 4.4 03:33:48 44° N 03:33:48 44° N 03:36:51 10° N
BREEZE-M DEB (TANK) 4.0 03:32:39 53° NW 03:33:36 59° N 03:50:59 10° ENE
ADEOS Rocket 3.2 03:32:19 10° NNE 03:36:42 59° N 03:36:42 59° N
Cosmos 2285 Rocket 3.9 03:55:05 83° SE 03:55:13 83° ESE 04:01:39 10° NNE
Cosmos 292 Rocket 4.4 04:01:03 55° NNE 04:01:03 55° NNE 04:04:51 10° NNE
NOSS 3-1 (C) 4.2 03:53:08 10° NNW 04:00:43 72° NE 04:09:06 10° SE
IRS-1C 4.2 04:01:56 10° N 04:06:44 67° NNW 04:06:44 67° NNW
MOS 1 Rocket 3.8 04:03:36 10° NNE 04:07:16 54° NE 04:07:16 54° NE
BREEZE M DEB (TANK) 3.3 04:09:47 57° E 04:09:47 57° E 04:17:05 10° ESE
Cosmos 1315 Rocket 4.3 04:06:36 10° N 04:08:58 33° N 04:08:58 33° N
Tiangong 2 4.3 04:13:48 11° E 04:13:48 11° E 04:13:59 10° E
ARIANE 5 R/B 2.6 04:06:20 10° NNE 04:11:36 74° ESE 04:11:38 74° ESE
Cosmos 1633 Rocket 3.8 04:07:43 10° N 04:11:28 51° NE 04:11:28 51° NE
NPP 4.2 04:08:03 10° N 04:12:35 45° NW 04:12:35 45° NW
Cosmos 2123 Rocket 4.2 04:11:07 10° NNW 04:16:37 51° WNW 04:16:37 51° WNW
Resurs 1-4 Rocket 2.0 04:15:28 10° N 04:20:42 77° WNW 04:20:42 77° WNW
MOZ.5/SAFIR/RUBIN 5/SL-8 4.0 04:24:36 59° ESE 04:25:16 67° ENE 04:29:56 10° N
Cosmos 2228 Rocket 3.8 04:25:04 44° ESE 04:25:35 47° E 04:29:50 10° NNE
UNKNOWN OBJECT B 3.5 04:23:57 10° NNE 04:27:47 54° E 04:27:47 54° E
Cosmos 1833 Rocket 3.9 04:29:40 25° SSE 04:32:05 35° ESE 04:37:10 10° NE
Cosmos 2221 4.3 04:33:56 22° NW 04:33:56 22° NW 04:36:06 10° NNW
Cosmos 1328 Rocket 3.7 04:33:23 67° ESE 04:33:29 67° E 04:37:49 10° NNE
Cosmos 773 Rocket 4.0 04:34:58 63° S 04:35:48 80° ESE 04:41:08 10° NNE
SL-16 R/B 2.7 04:36:07 50° WSW 04:36:11 50° W 04:42:12 10° NNW
Lacrosse 5 2.1 04:37:54 10° NW 04:42:58 67° NE 04:48:00 10° SE
IRS-1D 3.8 04:39:03 10° N 04:44:02 49° WNW 04:44:23 48° W
CZ-2D R/B 2.4 04:40:03 10° N 04:45:09 47° WNW 04:45:34 46° W
COSMOS 2406 4.2 04:45:23 30° WNW 04:46:05 31° NW 04:51:06 10° N
Cosmos 1300 3.5 04:49:16 41° NNW 04:49:16 41° NNW 04:52:07 10° N
Cosmos 1666 Rocket 4.4 04:44:26 10° NNW 04:47:34 37° NW 04:47:34 37° NW
Cosmos 1980 Rocket 4.4 04:45:15 10° N 04:49:54 26° NE 04:54:30 10° ESE
OAO 2 Rocket 4.5 04:51:41 27° SSE 04:51:41 27° SSE 04:55:40 10° ESE
Cosmos 1151 Rocket 3.2 04:54:35 42° SSE 04:55:53 67° E 05:00:07 10° NNE
COSMOS 2487 3.0 04:56:42 50° SE 04:57:02 53° ESE 05:00:30 10° NNE
Cosmos 1933 Rocket 3.6 04:53:02 10° N 04:57:31 79° E 04:59:41 30° SSE
CZ-2D R/B 3.2 04:58:01 10° N 05:01:59 66° WNW 05:02:14 64° W
Cosmos 2278 3.6 04:56:27 10° NNW 05:02:08 89° WSW 05:07:47 10° SSE
Cosmos 2061 Rocket 4.0 04:58:48 30° SSW 05:02:17 83° W 05:08:44 10° N
Cosmos 1455 3.2 05:01:56 25° SSE 05:03:43 43° E 05:07:18 10° NNE
Cosmos 2016 Rocket 3.9 04:59:56 23° S 05:03:56 82° E 05:10:03 10° N
ADEOS II 3.0 04:58:52 10° NNE 05:03:56 47° E 05:08:35 12° S
Cosmos 1697 Rocket 3.5 04:58:38 10° NNW 05:04:12 53° ENE 05:09:43 10° SE
ADEOS 4.2 05:05:21 10° N 05:10:09 38° WNW 05:11:20 34° W
Cosmos 1726 4.2 05:15:48 16° NW 05:15:48 16° NW 05:17:20 10° NNW
ATLAS 2AS CENTAUR R/B 4.3 05:10:00 10° NNW 05:17:34 42° NE 05:24:39 10° ESE
Cosmos 1725 Rocket 4.1 05:13:42 11° S 05:19:36 77° E 05:25:47 10° N
NOSS 3-1 (A) 4.2 05:16:44 10° NW 05:24:15 54° WSW 05:32:26 10° SSE
Cosmos 2082 Rocket 2.1 05:22:11 26° SSW 05:25:25 81° WNW 05:31:06 10° NNE
Okean O Rocket 2.7 05:21:53 10° NNE 05:26:07 44° E 05:30:18 10° S
Cosmos 2100 Rocket 4.4 05:23:16 27° SW 05:26:16 45° WNW 05:32:21 10° N
Cosmos 1802 Rocket 4.2 05:25:21 24° SW 05:29:00 54° WNW 05:35:11 10° N
MOS 1-B 4.3 05:29:20 10° NNE 05:35:10 80° WNW 05:40:24 13° SSW
PSLV R/B 4.5 05:40:37 23° SSW 05:40:37 23° SSW 05:42:49 10° SSE
Cosmos 1470 Rocket 4.4 05:37:38 10° NNW 05:41:20 28° W 05:42:29 25° WSW
Cosmos 1408 3.6 05:39:18 10° N 05:42:49 48° E 05:46:18 10° SSE
Cosmos 923 Rocket 4.4 05:39:58 23° SW 05:42:49 45° WNW 05:47:53 10° N
Cosmos 1656 3.8 05:37:39 10° NNW 05:43:10 52° WSW 05:48:39 10° S
CZ-4B R/B 3.7 05:40:01 10° NNE 05:45:25 59° ESE 05:50:40 10° S
Shenzhou-11 Module 2.2 05:44:19 26° W 05:45:51 65° N 05:48:56 10° ENE
Tiangong 2 1.2 05:46:10 26° W 05:47:48 74° N 05:51:01 10° ENE
Cosmos 1892 3.4 05:45:01 10° NNW 05:48:29 33° W 05:50:34 19° SW
Tsikada Rocket 4.0 05:43:17 10° NNW 05:49:35 71° W 05:55:55 10° S
ARIANE 5 R/B 4.4 05:47:08 10° NNW 05:50:04 15° WNW 05:51:59 13° W
Cosmos 1624 Rocket 4.5 05:44:50 10° NNW 05:50:04 65° ENE 05:55:14 10° SSE
Landsat 4 4.3 05:46:47 10° SSE 05:50:27 60° ENE 05:54:11 10° N
Cosmos 2084 3.3 05:49:11 22° SW 05:51:40 66° NW 05:55:32 10° NNE
Cosmos 1825 2.6 05:49:42 10° N 05:53:31 64° E 05:57:16 10° SSE
Meteor 2-3 Rocket 4.1 05:51:08 10° NNW 05:56:24 41° W 06:01:41 10° SSW
Cosmos 1869 3.2 05:52:39 10° S 05:56:36 88° W 06:00:38 10° N
Lacrosse 4 Rocket 3.5 05:53:24 10° SSE 05:57:08 27° ESE 06:00:55 10° NE
Cosmos 2369 4.4 05:52:55 10° NW 05:57:45 30° WSW 06:02:34 10° SSW
Meteor 1-31 Rocket 4.1 05:55:23 10° NNE 05:59:09 41° E 06:02:53 10° S
PSLV R/B 4.1 05:55:29 10° N 05:59:32 53° WNW 06:03:24 11° SSW
Resurs 1-4 Rocket 4.2 05:58:45 10° NW 05:59:40 10° WNW 06:00:35 10° WNW
Cosmos 1680 Rocket 4.1 05:56:27 16° SW 06:00:15 41° WNW 06:05:19 10° N
Cosmos 2322 Rocket 4.2 05:56:05 10° N 06:01:08 32° ENE 06:06:09 10° ESE
Cosmos 1869 Rocket 3.5 05:59:16 10° NNW 06:03:43 68° W 06:08:07 10° S
PAYLOAD B 4.2 06:05:11 10° N 06:10:47 73° WNW 06:16:20 10° SSW
Hubble Space Telescope 3.0 06:11:33 10° SSW 06:11:55 10° SSW 06:12:18 10° S
SL-16 R/B 3.7 06:09:04 10° N 06:14:26 41° ENE 06:19:46 10° SE
Cosmos 1833 Rocket 3.5 06:11:23 12° WSW 06:15:58 34° WNW 06:21:05 10° N
PSLV R/B 4.0 06:14:16 10° N 06:18:22 42° WNW 06:22:24 10° SW
ATLAS 5 CENTAUR R/B 3.4 06:15:23 10° S 06:19:28 33° ESE 06:23:51 10° NE
IRS-1C Rocket 4.1 06:15:26 10° N 06:20:42 72° WNW 06:25:56 10° SSW
Cosmos 2242 Rocket 4.1 06:16:56 10° S 06:21:22 66° E 06:25:47 10° NNE
Lacrosse 5 3.1 06:21:48 10° WNW 06:25:29 20° WSW 06:29:08 10° SSW
Cosmos 2056 Rocket 3.6 06:20:56 10° NNW 06:26:16 65° WSW 06:31:38 10° S
CRYOSAT 2 4.3 06:23:25 10° N 06:28:16 71° W 06:33:05 10° SSW
Timation 2 Rocket 4.1 06:25:40 10° SW 06:31:32 57° WNW 06:37:39 10° NNE
Cosmos 1980 Rocket 2.4 06:28:45 10° NW 06:34:08 49° WSW 06:39:30 10° S
NOSS 7 (E) 4.4 06:32:05 10° SW 06:35:36 71° NW 06:38:52 10° NNE
OAO 2 Rocket 4.0 06:31:08 10° WSW 06:35:44 41° S 06:40:25 10° ESE
